{"data":{"norad_id":55337,"intl_designator":"2023-013G","name":"STARLINK-5667","alt_names":[],"object_type":"PAYLOAD","status":"ACTIVE","operator":null,"country":"US","launch_date":"2023-01-26","launch_site_code":"AFETR","launch_vehicle":null,"mission":null,"orbit_class":"UNKNOWN","rcs_meters":null,"size_class":null,"mass_kg":null,"dimensions":null,"purposes":["comms"],"wikipedia_slug":null,"has_3d_model":false,"image_url":null,"decayed_at":null,"tle_current":{"epoch":"2026-05-24T21:39:51.130368Z","epoch_age_seconds":86628,"freshness":"FRESH","line1":"1 55337U 23013G   26144.90267512 -.00000391  00000+0 -46719-5 0  9997","line2":"2 55337  43.0023 218.7130 0001011 268.7590  91.3146 15.27576108183490","mean_motion":15.27576108,"eccentricity":0.0001011,"inclination_deg":43.0023,"raan_deg":218.713,"arg_perigee_deg":268.759,"mean_anomaly_deg":91.3146,"bstar":-4.6719e-6,"rev_number":18349,"period_min":94.266988889041,"perigee_km":482.36708302,"apogee_km":483.75441720507,"semimajor_km":6861.1977501125,"source":"CELESTRAK","updated_at":"2026-05-25T13:38:17.760893Z"}}}